[TLELIST] Archives

 

[list_settings.list_name] Current TLEs

January 28th 2013 PDT

HST 1 20580U 90037B 13028.24675234 .00001258 00000-0 78359-4 0 1636 2 20580 028.4690 109.9412 0003116 290.0747 069.9518 15.03244283 48611 ISS (ZARYA) 1 25544U 98067A 13028.26260973 .00012713 00000-0 21292-3 0 1017 2 25544 051.6483 083.4191 0013078 207.1741 267.5985 15.52159013812977 CXO 1 25867U 99040B 13030.39198617 -.00000237 00000-0 00000+0 0 8497 2 25867 074.4790 348.3627 8665379 277.9699 000.8594 00.37800229 10016 ____________________________________________________________________ These 2-Line ...Continue Reading

[list_settings.list_name] Current TLEs

January 27th 2013 PDT

HST 1 20580U 90037B 13026.85252047 .00001106 00000-0 67421-4 0 1623 2 20580 028.4692 119.0748 0003110 275.2142 084.8087 15.03240716 48406 ISS (ZARYA) 1 25544U 98067A 13027.42546378 .00009817 00000-0 16638-3 0 962 2 25544 051.6483 087.5763 0013371 204.4068 269.5148 15.52128955812845 CXO 1 25867U 99040B 13030.39198617 -.00000237 00000-0 00000+0 0 8497 2 25867 074.4790 348.3627 8665379 277.9699 000.8594 00.37800229 10016 ____________________________________________________________________ These 2-Line ...Continue Reading

[list_settings.list_name] Current TLEs

January 26th 2013 PDT

HST 1 20580U 90037B 13025.52467815 .00001070 00000-0 64826-4 0 1612 2 20580 028.4693 127.7727 0003148 261.3981 098.6259 15.03238033 48209 ISS (ZARYA) 1 25544U 98067A 13026.46300132 .00008809 00000-0 15025-3 0 915 2 25544 051.6484 092.3599 0013450 200.5846 291.8850 15.52104968812695 CXO 1 25867U 99040B 13027.74646901 -.00000260 00000-0 00000+0 0 8470 2 25867 074.4569 348.5134 8665745 278.0071 000.6884 00.37796288 10006 ____________________________________________________________________ These 2-Line ...Continue Reading

[list_settings.list_name] Current TLEs

January 25th 2013 PDT

HST 1 20580U 90037B 13023.73208723 .00001318 00000-0 82740-4 0 1603 2 20580 028.4691 139.5192 0003334 243.1603 116.8646 15.03235172 47933 ISS (ZARYA) 1 25544U 98067A 13025.49143461 .00010046 00000-0 17031-3 0 866 2 25544 051.6479 097.1868 0013447 196.3115 263.9032 15.52090999812542 CXO 1 25867U 99040B 13027.74646901 -.00000260 00000-0 00000+0 0 8470 2 25867 074.4569 348.5134 8665745 278.0071 000.6884 00.37796288 10006 ____________________________________________________________________ These 2-Line ...Continue Reading

[list_settings.list_name] Current TLEs

January 24th 2013 PDT

HST 1 20580U 90037B 13023.73208723 .00001318 00000-0 82740-4 0 1603 2 20580 028.4691 139.5192 0003334 243.1603 116.8646 15.03235172 47933 ISS (ZARYA) 1 25544U 98067A 13024.39627603 .00011244 00000-0 18978-3 0 816 2 25544 051.6483 102.6278 0013480 192.5760 264.4195 15.52072834812370 CXO 1 25867U 99040B 13025.10102517 -.00000453 00000-0 00000+0 0 8461 2 25867 074.4260 348.6951 8669054 278.0311 000.5185 00.37797768 9999 ____________________________________________________________________ These 2-Line ...Continue Reading

[list_settings.list_name] Current TLEs

January 23rd 2013 PDT

HST 1 20580U 90037B 13022.53702513 .00001420 00000-0 90091-4 0 1596 2 20580 028.4690 147.3483 0003356 232.0440 127.9840 15.03232565 47754 ISS (ZARYA) 1 25544U 98067A 13023.10342463 .00012538 00000-0 21087-3 0 757 2 25544 051.6479 109.0510 0013792 188.5239 240.0211 15.52047613812171 CXO 1 25867U 99040B 13025.10102517 -.00000453 00000-0 00000+0 0 8461 2 25867 074.4260 348.6951 8669054 278.0311 000.5185 00.37797768 9999 ____________________________________________________________________ These 2-Line ...Continue Reading

[list_settings.list_name] Current TLEs

January 22nd 2013 PDT

HST 1 20580U 90037B 13020.81082034 .00001702 00000-0 11041-3 0 1583 2 20580 028.4689 158.6558 0003451 215.2207 144.8158 15.03228720 47499 ISS (ZARYA) 1 25544U 98067A 13022.13832458 .00013889 00000-0 23288-3 0 695 2 25544 051.6481 113.8462 0013651 185.2933 247.3716 15.52028137812026 CXO 1 25867U 99040B 13022.45621139 -.00000712 00000-0 00000+0 0 8459 2 25867 074.3984 348.9073 8670906 278.0374 000.4516 00.37798049 9985 ____________________________________________________________________ These 2-Line ...Continue Reading

[list_settings.list_name] Current TLEs

January 21st 2013 PDT

HST 1 20580U 90037B 13019.54936031 .00001739 00000-0 11308-3 0 1571 2 20580 028.4686 166.9204 0003599 203.5329 156.5096 15.03224741 47304 ISS (ZARYA) 1 25544U 98067A 13020.78886722 .00015081 00000-0 25247-3 0 601 2 25544 051.6478 120.5526 0013690 179.9699 267.9859 15.51993832811814 CXO 1 25867U 99040B 13022.45621139 -.00000712 00000-0 00000+0 0 8459 2 25867 074.3984 348.9073 8670906 278.0374 000.4516 00.37798049 9985 ____________________________________________________________________ These 2-Line ...Continue Reading

[list_settings.list_name] Current TLEs

January 20th 2013 PDT

HST 1 20580U 90037B 13019.54936031 .00001739 00000-0 11308-3 0 1571 2 20580 028.4686 166.9204 0003599 203.5329 156.5096 15.03224741 47304 ISS (ZARYA) 1 25544U 98067A 13020.46907980 .00015161 00000-0 25385-3 0 574 2 25544 051.6472 122.1413 0013657 178.7610 281.3103 15.51984177811762 CXO 1 25867U 99040B 13022.45621139 -.00000712 00000-0 00000+0 0 8459 2 25867 074.3984 348.9073 8670906 278.0374 000.4516 00.37798049 9985 ____________________________________________________________________ These 2-Line ...Continue Reading

[list_settings.list_name] Current TLEs

January 19th 2013 PDT

HST 1 20580U 90037B 13017.82314684 .00001692 00000-0 10975-3 0 1560 2 20580 028.4685 178.2267 0003720 185.7028 174.3522 15.03218975 47046 ISS (ZARYA) 1 25544U 98067A 13019.42871262 .00017082 00000-0 28526-3 0 531 2 25544 051.6473 127.3105 0013720 175.4390 228.1713 15.51955715811603 CXO 1 25867U 99040B 13019.81529036 -.00000936 00000-0 00000+0 0 8434 2 25867 074.3849 349.0739 8672312 278.0624 000.9022 00.37798530 9978 ____________________________________________________________________ These 2-Line ...Continue Reading
  • This mailing list is a public mailing list - anyone may join or leave, at any time.
  • This mailing list is announce-only.

International Space Station (ISS) / Hubble Space Telescope (HST) / Chandra X-Ray Observatory Orbital Data via EMAIL

Privacy Policy:

Private list